CMA CGM Butterfly — A8NO8 — position and weather

sailwx.info

Track history (hours):
 
Tides and Currents Weather Stations Pressure Air Temp Water Temp Dewpoint Dewpoint Depression Visibility Wind Speed Wind Dir Waves Ship Positions

CMA CGM Butterfly

Last reported at 2016-Aug-05 22:33 UTC. Time now 2016-Aug-25 16:41 UTC.
Position N 01°50' E 102°30'.
Warning: this ship's position is 19 days out of date.

Length 350 m; draft 12.5 m.

Type: Ship (hazmat cat A). MMSI: 636091420.

Date/timePositionNaut miles runAvg speedWind from/ knotsBaromVisibWave heightAir tempDewpointWater temp
2016-Aug-05 22:33N 01°50' E 102°30'7216.7
2016-Aug-05 18:13N 01°12' E 103°31'1014.4
2016-Aug-05 17:34N 01°10' E 103°40'1111.3
2016-Aug-05 16:33N 01°12' E 103°52'4 3.7
2016-Aug-05 15:34N 01°16' E 103°51'1 0.6
2016-Aug-05 14:32N 01°16' E 103°50'0 0.0
2016-Aug-05 13:31N 01°16' E 103°50'0 0.0
2016-Aug-05 12:32N 01°16' E 103°50'0 0.0
2016-Aug-05 11:31N 01°16' E 103°50'0 0.0
2016-Aug-05 10:32N 01°16' E 103°50'0 0.0
2016-Aug-05 09:29N 01°16' E 103°50'0 0.0
2016-Aug-05 08:32N 01°16' E 103°50'0 0.0
2016-Aug-05 07:29N 01°16' E 103°50'0 0.0
2016-Aug-05 06:29N 01°16' E 103°50'0 0.0
2016-Aug-05 04:29N 01°16' E 103°50'0 0.0
2016-Aug-05 03:29N 01°16' E 103°50'0 0.0
2016-Aug-05 02:32N 01°16' E 103°50'0 0.0
2016-Aug-05 01:32N 01°16' E 103°50'0 0.0
2016-Aug-05 00:29N 01°16' E 103°50'0 0.0
2016-Aug-04 23:32N 01°16' E 103°50'0 0.0
2016-Aug-04 22:29N 01°16' E 103°50'0 0.0
2016-Aug-04 21:29N 01°16' E 103°50'0 0.0
2016-Aug-04 20:32N 01°16' E 103°50'0 0.0
2016-Aug-04 19:29N 01°16' E 103°50'0 0.0
2016-Aug-04 18:33N 01°16' E 103°50'5 4.6
2016-Aug-04 17:33N 01°14' E 103°54'8 7.6
2016-Aug-04 16:33N 01°16' E 104°02'10 9.8
2016-Aug-04 15:33N 01°17' E 104°11'35 9.8
2016-Aug-04 12:00N 01°42' E 104°36'15012.5 210 / 141009.010.8 0.527.022.827.0
2016-Aug-04 00:00N 03°54' E 105°48'34414.3 220 / 141009.010.8 0.527.523.427.0
2016-Aug-03 00:00N 08°36' E 109°06'31314.9 240 / 271006.010.8 2.526.525.128.0
2016-Aug-02 03:00N 13°12' E 111°36'5317.8 200 / 151003.510.8 2.029.526.928.5
2016-Aug-02 00:00N 14°00' E 112°00'13915.4 230 / 161003.510.8 0.528.526.528.0
2016-Aug-01 15:00N 16°06' E 113°00'4414.5 250 / 181003.0 5.4 1.528.025.328.0
2016-Aug-01 12:00N 16°48' E 113°12'18315.3 250 / 151001.510.8 0.528.026.728.0
2016-Aug-01 00:00N 19°48' E 113°48'15013.8 330 / 141002.510.8 0.528.526.528.0
2016-Jul-31 13:06N 22°17' E 114°06'1110.7
2016-Jul-31 12:04N 22°22' E 113°55'4 7.9
2016-Jul-31 11:33N 22°25' E 113°53'2 2.0
2016-Jul-31 10:22N 22°28' E 113°53'0 0.0
2016-Jul-31 09:28N 22°28' E 113°53'0 0.0
2016-Jul-31 08:28N 22°28' E 113°53'0 0.0
2016-Jul-31 06:28N 22°28' E 113°53'0 0.0
2016-Jul-31 05:22N 22°28' E 113°53'0 0.0
2016-Jul-31 04:16N 22°28' E 113°53'0 0.0
2016-Jul-31 03:28N 22°28' E 113°53'0 0.0
2016-Jul-31 02:22N 22°28' E 113°53'0 0.0
2016-Jul-31 01:28N 22°28' E 113°53'0 0.0
2016-Jul-31 00:16N 22°28' E 113°53'0 0.0
2016-Jul-30 22:28N 22°28' E 113°53'0 0.0
2016-Jul-30 21:16N 22°28' E 113°53'0 0.0
2016-Jul-30 20:28N 22°28' E 113°53'0 0.0
2016-Jul-30 19:28N 22°28' E 113°53'0 0.0
2016-Jul-30 18:22N 22°28' E 113°53'0 0.0
2016-Jul-30 17:28N 22°28' E 113°53'0 0.0
2016-Jul-30 16:04N 22°28' E 113°53'0 0.0
2016-Jul-30 15:28N 22°28' E 113°53'0 0.0
2016-Jul-30 14:28N 22°28' E 113°53'3 3.2
2016-Jul-30 13:33N 22°25' E 113°53'10 9.8
2016-Jul-30 12:33N 22°22' E 114°03'4 0.5
2016-Jul-30 04:33N 22°20' E 114°08'0 0.0
2016-Jul-30 03:33N 22°20' E 114°08'0 0.0
2016-Jul-30 02:33N 22°20' E 114°08'0 0.0
2016-Jul-30 01:27N 22°20' E 114°08'14511.2
2016-Jul-29 12:33N 22°43' E 116°42'6 9.9
2016-Jul-29 12:00N 22°42' E 116°48'1720.4 290 / 141007.510.8 0.525.022.927.0
2016-Jul-29 11:10N 22°55' E 117°00'914.1
2016-Jul-29 10:33N 22°60' E 117°08'6913.8
2016-Jul-29 05:33N 23°36' E 118°11'1413.8
2016-Jul-29 04:30N 23°44' E 118°25'1313.9
2016-Jul-29 03:33N 23°51' E 118°37'1813.8
2016-Jul-29 02:15N 23°60' E 118°54'1214.0
2016-Jul-29 01:22N 24°08' E 119°04'1611.7
2016-Jul-29 00:00N 24°18' E 119°18'1221.0 170 / 101007.010.8 27.526.827.0
2016-Jul-28 23:26N 24°29' E 119°24'1213.6
2016-Jul-28 22:32N 24°37' E 119°33'1313.3
2016-Jul-28 21:33N 24°47' E 119°43'1413.7
2016-Jul-28 20:33N 24°58' E 119°52'1313.5
2016-Jul-28 19:33N 25°07' E 120°03'10113.3
2016-Jul-28 12:00N 26°30' E 121°06'14713.8 190 / 131007.5 5.4 0.528.027.327.0
2016-Jul-28 01:17N 28°37' E 122°29'1418.6
2016-Jul-28 00:33N 28°50' E 122°34'4 7.2
2016-Jul-28 00:00N 28°54' E 122°36'1221.9 200 / 111006.5 5.4 0.527.527.526.0
2016-Jul-27 23:26N 29°06' E 122°40'1414.1
2016-Jul-27 22:25N 29°19' E 122°46'1314.2
2016-Jul-27 21:29N 29°32' E 122°51'1414.0
2016-Jul-27 20:27N 29°45' E 122°56'1314.1
2016-Jul-27 19:33N 29°57' E 123°01'2813.5
2016-Jul-27 17:31N 30°25' E 122°59'1513.1
2016-Jul-27 16:21N 30°40' E 122°58'1113.4
2016-Jul-27 15:31N 30°51' E 122°56'2612.2
2016-Jul-27 13:24N 31°05' E 122°31'1011.0
2016-Jul-27 12:31N 31°06' E 122°19'1212.1
2016-Jul-27 11:33N 31°12' E 122°08'1413.5
2016-Jul-27 10:32N 31°16' E 121°52'1211.7
2016-Jul-27 09:33N 31°21' E 121°40'5 4.5
2016-Jul-27 08:26N 31°23' E 121°35'0 0.0
2016-Jul-27 07:32N 31°23' E 121°35'0 0.0
2016-Jul-27 06:32N 31°23' E 121°35'0 0.0
2016-Jul-27 05:32N 31°23' E 121°35'0 0.0
2016-Jul-27 04:32N 31°23' E 121°35'0 0.0
2016-Jul-27 03:29N 31°23' E 121°35'0 0.0
2016-Jul-27 02:32N 31°23' E 121°35'0 0.1
2016-Jul-27 01:26N 31°23' E 121°35'0 0.1
2016-Jul-27 00:32N 31°23' E 121°35'0 0.0
2016-Jul-26 23:32N 31°23' E 121°35'  
Track history (hours):
 
Tides and Currents Weather Stations Pressure Air Temp Water Temp Dewpoint Dewpoint Depression Visibility Wind Speed Wind Dir Waves Ship Positions

CMA CGM Butterfly

Last reported at 2016-Aug-05 22:33 UTC. Time now 2016-Aug-25 16:41 UTC.
Position N 01°50' E 102°30'.
Warning: this ship's position is 19 days out of date.

Length 350 m; draft 12.5 m.

Type: Ship (hazmat cat A). MMSI: 636091420.

Date/timePositionNaut miles runAvg speedWind from/ knotsBaromVisibWave heightAir tempDewpointWater temp
2016-Aug-05 22:33N 01°50' E 102°30'7216.7
2016-Aug-05 18:13N 01°12' E 103°31'1014.4
2016-Aug-05 17:34N 01°10' E 103°40'1111.3
2016-Aug-05 16:33N 01°12' E 103°52'4 3.7
2016-Aug-05 15:34N 01°16' E 103°51'1 0.6
2016-Aug-05 14:32N 01°16' E 103°50'0 0.0
2016-Aug-05 13:31N 01°16' E 103°50'0 0.0
2016-Aug-05 12:32N 01°16' E 103°50'0 0.0
2016-Aug-05 11:31N 01°16' E 103°50'0 0.0
2016-Aug-05 10:32N 01°16' E 103°50'0 0.0
2016-Aug-05 09:29N 01°16' E 103°50'0 0.0
2016-Aug-05 08:32N 01°16' E 103°50'0 0.0
2016-Aug-05 07:29N 01°16' E 103°50'0 0.0
2016-Aug-05 06:29N 01°16' E 103°50'0 0.0
2016-Aug-05 04:29N 01°16' E 103°50'0 0.0
2016-Aug-05 03:29N 01°16' E 103°50'0 0.0
2016-Aug-05 02:32N 01°16' E 103°50'0 0.0
2016-Aug-05 01:32N 01°16' E 103°50'0 0.0
2016-Aug-05 00:29N 01°16' E 103°50'0 0.0
2016-Aug-04 23:32N 01°16' E 103°50'0 0.0
2016-Aug-04 22:29N 01°16' E 103°50'0 0.0
2016-Aug-04 21:29N 01°16' E 103°50'0 0.0
2016-Aug-04 20:32N 01°16' E 103°50'0 0.0
2016-Aug-04 19:29N 01°16' E 103°50'0 0.0
2016-Aug-04 18:33N 01°16' E 103°50'5 4.6
2016-Aug-04 17:33N 01°14' E 103°54'8 7.6
2016-Aug-04 16:33N 01°16' E 104°02'10 9.8
2016-Aug-04 15:33N 01°17' E 104°11'35 9.8
2016-Aug-04 12:00N 01°42' E 104°36'15012.5 210 / 141009.010.8 0.527.022.827.0
2016-Aug-04 00:00N 03°54' E 105°48'34414.3 220 / 141009.010.8 0.527.523.427.0
2016-Aug-03 00:00N 08°36' E 109°06'31314.9 240 / 271006.010.8 2.526.525.128.0
2016-Aug-02 03:00N 13°12' E 111°36'5317.8 200 / 151003.510.8 2.029.526.928.5
2016-Aug-02 00:00N 14°00' E 112°00'13915.4 230 / 161003.510.8 0.528.526.528.0
2016-Aug-01 15:00N 16°06' E 113°00'4414.5 250 / 181003.0 5.4 1.528.025.328.0
2016-Aug-01 12:00N 16°48' E 113°12'18315.3 250 / 151001.510.8 0.528.026.728.0
2016-Aug-01 00:00N 19°48' E 113°48'15013.8 330 / 141002.510.8 0.528.526.528.0
2016-Jul-31 13:06N 22°17' E 114°06'1110.7
2016-Jul-31 12:04N 22°22' E 113°55'4 7.9
2016-Jul-31 11:33N 22°25' E 113°53'2 2.0
2016-Jul-31 10:22N 22°28' E 113°53'0 0.0
2016-Jul-31 09:28N 22°28' E 113°53'0 0.0
2016-Jul-31 08:28N 22°28' E 113°53'0 0.0
2016-Jul-31 06:28N 22°28' E 113°53'0 0.0
2016-Jul-31 05:22N 22°28' E 113°53'0 0.0
2016-Jul-31 04:16N 22°28' E 113°53'0 0.0
2016-Jul-31 03:28N 22°28' E 113°53'0 0.0
2016-Jul-31 02:22N 22°28' E 113°53'0 0.0
2016-Jul-31 01:28N 22°28' E 113°53'0 0.0
2016-Jul-31 00:16N 22°28' E 113°53'0 0.0
2016-Jul-30 22:28N 22°28' E 113°53'0 0.0
2016-Jul-30 21:16N 22°28' E 113°53'0 0.0
2016-Jul-30 20:28N 22°28' E 113°53'0 0.0
2016-Jul-30 19:28N 22°28' E 113°53'0 0.0
2016-Jul-30 18:22N 22°28' E 113°53'0 0.0
2016-Jul-30 17:28N 22°28' E 113°53'0 0.0
2016-Jul-30 16:04N 22°28' E 113°53'0 0.0
2016-Jul-30 15:28N 22°28' E 113°53'0 0.0
2016-Jul-30 14:28N 22°28' E 113°53'3 3.2
2016-Jul-30 13:33N 22°25' E 113°53'10 9.8
2016-Jul-30 12:33N 22°22' E 114°03'4 0.5
2016-Jul-30 04:33N 22°20' E 114°08'0 0.0
2016-Jul-30 03:33N 22°20' E 114°08'0 0.0
2016-Jul-30 02:33N 22°20' E 114°08'0 0.0
2016-Jul-30 01:27N 22°20' E 114°08'14511.2
2016-Jul-29 12:33N 22°43' E 116°42'6 9.9
2016-Jul-29 12:00N 22°42' E 116°48'1720.4 290 / 141007.510.8 0.525.022.927.0
2016-Jul-29 11:10N 22°55' E 117°00'914.1
2016-Jul-29 10:33N 22°60' E 117°08'6913.8
2016-Jul-29 05:33N 23°36' E 118°11'1413.8
2016-Jul-29 04:30N 23°44' E 118°25'1313.9
2016-Jul-29 03:33N 23°51' E 118°37'1813.8
2016-Jul-29 02:15N 23°60' E 118°54'1214.0
2016-Jul-29 01:22N 24°08' E 119°04'1611.7
2016-Jul-29 00:00N 24°18' E 119°18'1221.0 170 / 101007.010.8 27.526.827.0
2016-Jul-28 23:26N 24°29' E 119°24'1213.6
2016-Jul-28 22:32N 24°37' E 119°33'1313.3
2016-Jul-28 21:33N 24°47' E 119°43'1413.7
2016-Jul-28 20:33N 24°58' E 119°52'1313.5
2016-Jul-28 19:33N 25°07' E 120°03'10113.3
2016-Jul-28 12:00N 26°30' E 121°06'14713.8 190 / 131007.5 5.4 0.528.027.327.0
2016-Jul-28 01:17N 28°37' E 122°29'1418.6
2016-Jul-28 00:33N 28°50' E 122°34'4 7.2
2016-Jul-28 00:00N 28°54' E 122°36'1221.9 200 / 111006.5 5.4 0.527.527.526.0
2016-Jul-27 23:26N 29°06' E 122°40'1414.1
2016-Jul-27 22:25N 29°19' E 122°46'1314.2
2016-Jul-27 21:29N 29°32' E 122°51'1414.0
2016-Jul-27 20:27N 29°45' E 122°56'1314.1
2016-Jul-27 19:33N 29°57' E 123°01'2813.5
2016-Jul-27 17:31N 30°25' E 122°59'1513.1
2016-Jul-27 16:21N 30°40' E 122°58'1113.4
2016-Jul-27 15:31N 30°51' E 122°56'2612.2
2016-Jul-27 13:24N 31°05' E 122°31'1011.0
2016-Jul-27 12:31N 31°06' E 122°19'1212.1
2016-Jul-27 11:33N 31°12' E 122°08'1413.5
2016-Jul-27 10:32N 31°16' E 121°52'1211.7
2016-Jul-27 09:33N 31°21' E 121°40'5 4.5
2016-Jul-27 08:26N 31°23' E 121°35'0 0.0
2016-Jul-27 07:32N 31°23' E 121°35'0 0.0
2016-Jul-27 06:32N 31°23' E 121°35'0 0.0
2016-Jul-27 05:32N 31°23' E 121°35'0 0.0
2016-Jul-27 04:32N 31°23' E 121°35'0 0.0
2016-Jul-27 03:29N 31°23' E 121°35'0 0.0
2016-Jul-27 02:32N 31°23' E 121°35'0 0.1
2016-Jul-27 01:26N 31°23' E 121°35'0 0.1
2016-Jul-27 00:32N 31°23' E 121°35'0 0.0
2016-Jul-26 23:32N 31°23' E 121°35'  

Dump ship's entire track history